IBE22IA LEMD-GMMN

Flight info

Callsign IBE22IA
Flight time 1h 25m
Altitude 37000
Route VTB DCT INPAN DCT CRISA DCT HIJ DCT SVL DCT VJF N10 LINTO UN10 BARIS UB11 TUSOR
Aircraft A320/M-SDE3FGHIRWY/LB1

Departure

Time 2026-05-07 16:59
Airport Adolfo Suárez Madrid–Barajas Airport (LEMD)

Arrival

Time 2026-05-07 18:24
Airport Mohammed V International Airport (GMMN)
Time Latitude Longitude Altitude Speed Heading
2026-05-07 16:42 40.49005 -3.58975 1980 ft 0 kts 269°
2026-05-07 16:50 40.49005 -3.58958 1980 ft 2 kts 269°
2026-05-07 16:51 40.49005 -3.58936 1980 ft 2 kts 265°
2026-05-07 16:51 40.49008 -3.58918 1980 ft 2 kts 243°
2026-05-07 16:51 40.49017 -3.58899 1982 ft 2 kts 193°
2026-05-07 16:51 40.49018 -3.58899 1982 ft 0 kts 189°
2026-05-07 16:54 40.49011 -3.58900 1980 ft 5 kts 187°
2026-05-07 16:54 40.48967 -3.58903 1983 ft 10 kts 179°
2026-05-07 16:54 40.48845 -3.58900 1980 ft 20 kts 179°
2026-05-07 16:54 40.48762 -3.58845 1982 ft 16 kts 98°
2026-05-07 16:55 40.48760 -3.58678 1980 ft 19 kts 89°
2026-05-07 16:55 40.48761 -3.58500 1980 ft 20 kts 89°
2026-05-07 16:55 40.48762 -3.58316 1980 ft 21 kts 89°
2026-05-07 16:55 40.48764 -3.58123 1980 ft 21 kts 89°
2026-05-07 16:56 40.48764 -3.58043 1980 ft 9 kts 90°
2026-05-07 16:56 40.48764 -3.57927 1980 ft 14 kts 88°
2026-05-07 16:56 40.48760 -3.57631 1982 ft 17 kts 115°
2026-05-07 16:57 40.48655 -3.57575 1980 ft 18 kts 173°
2026-05-07 16:57 40.48615 -3.57569 1980 ft 0 kts 173°
2026-05-07 16:58 40.48596 -3.57566 1980 ft 11 kts 173°
2026-05-07 16:58 40.48491 -3.57556 1980 ft 16 kts 183°
2026-05-07 16:58 40.48366 -3.57477 1980 ft 29 kts 140°
2026-05-07 16:58 40.48047 -3.57153 1980 ft 90 kts 143°
2026-05-07 16:59 40.47394 -3.56489 1981 ft 144 kts 142°
2026-05-07 16:59 40.46498 -3.55583 2200 ft 167 kts 141°
2026-05-07 16:59 40.45580 -3.54682 2846 ft 165 kts 141°
2026-05-07 16:59 40.44654 -3.53756 3324 ft 174 kts 141°
2026-05-07 17:00 40.43635 -3.52728 3526 ft 195 kts 141°
2026-05-07 17:00 40.42503 -3.51586 3654 ft 217 kts 142°
2026-05-07 17:00 40.41246 -3.50317 4144 ft 232 kts 142°
2026-05-07 17:00 40.39976 -3.49034 5120 ft 229 kts 143°
2026-05-07 17:01 40.38703 -3.47747 5952 ft 232 kts 144°
2026-05-07 17:01 40.37408 -3.46430 6683 ft 237 kts 144°
2026-05-07 17:01 40.36086 -3.45101 7373 ft 245 kts 147°
2026-05-07 17:01 40.34451 -3.44251 7712 ft 265 kts 176°
2026-05-07 17:02 40.32612 -3.44575 8342 ft 272 kts 198°
2026-05-07 17:02 40.30790 -3.45308 9177 ft 276 kts 198°
2026-05-07 17:02 40.28941 -3.46051 9994 ft 279 kts 198°
2026-05-07 17:02 40.27046 -3.46811 10477 ft 295 kts 198°
2026-05-07 17:03 40.25028 -3.47619 10712 ft 318 kts 198°
2026-05-07 17:03 40.22866 -3.48483 11225 ft 329 kts 198°
2026-05-07 17:03 40.20657 -3.49365 11919 ft 334 kts 198°
2026-05-07 17:03 40.18417 -3.50256 12642 ft 338 kts 198°
2026-05-07 17:04 40.16154 -3.51153 13368 ft 341 kts 198°
2026-05-07 17:04 40.13863 -3.52063 14037 ft 345 kts 198°
2026-05-07 17:04 40.11556 -3.52979 14663 ft 348 kts 198°
2026-05-07 17:04 40.09225 -3.53905 15281 ft 352 kts 198°
2026-05-07 17:05 40.06872 -3.54838 15919 ft 355 kts 198°
2026-05-07 17:05 40.04495 -3.55780 16534 ft 358 kts 198°
2026-05-07 17:05 40.02096 -3.56729 17154 ft 362 kts 198°
2026-05-07 17:05 39.99676 -3.57684 17757 ft 366 kts 198°
2026-05-07 17:06 39.97264 -3.58639 18319 ft 369 kts 198°
2026-05-07 17:06 39.94793 -3.59618 18815 ft 373 kts 198°
2026-05-07 17:06 39.92300 -3.60604 19299 ft 377 kts 198°
2026-05-07 17:06 39.89777 -3.61601 19778 ft 381 kts 198°
2026-05-07 17:07 39.87222 -3.62610 20260 ft 385 kts 199°
2026-05-07 17:07 39.84648 -3.63625 20731 ft 389 kts 199°
2026-05-07 17:07 39.82047 -3.64645 21184 ft 392 kts 199°
2026-05-07 17:07 39.79420 -3.65674 21658 ft 396 kts 199°
2026-05-07 17:08 39.76769 -3.66713 22102 ft 400 kts 199°
2026-05-07 17:08 39.74095 -3.67763 22535 ft 404 kts 200°
2026-05-07 17:08 39.71382 -3.68831 22934 ft 408 kts 200°
2026-05-07 17:08 39.68643 -3.69910 23358 ft 412 kts 200°
2026-05-07 17:09 39.65885 -3.70992 23739 ft 416 kts 201°
2026-05-07 17:09 39.63106 -3.72082 24112 ft 418 kts 201°
2026-05-07 17:09 39.60317 -3.73189 24476 ft 420 kts 204°
2026-05-07 17:09 39.57645 -3.74677 24841 ft 416 kts 213°
2026-05-07 17:10 39.55224 -3.76700 25201 ft 412 kts 223°
2026-05-07 17:10 39.53138 -3.79141 25571 ft 408 kts 231°
2026-05-07 17:10 39.51139 -3.81766 25940 ft 410 kts 231°
2026-05-07 17:10 39.49132 -3.84394 26368 ft 409 kts 232°
2026-05-07 17:11 39.47127 -3.87013 26784 ft 410 kts 232°
2026-05-07 17:11 39.45115 -3.89632 27193 ft 411 kts 232°
2026-05-07 17:11 39.43096 -3.92256 27585 ft 412 kts 232°
2026-05-07 17:11 39.41068 -3.94888 27954 ft 414 kts 232°
2026-05-07 17:12 39.39033 -3.97526 28327 ft 415 kts 232°
2026-05-07 17:12 39.36986 -4.00176 28698 ft 416 kts 232°
2026-05-07 17:12 39.34937 -4.02828 29047 ft 418 kts 232°
2026-05-07 17:12 39.32881 -4.05493 29371 ft 419 kts 232°
2026-05-07 17:13 39.30816 -4.08169 29706 ft 420 kts 232°
2026-05-07 17:13 39.28751 -4.10847 30032 ft 422 kts 232°
2026-05-07 17:13 39.26679 -4.13532 30285 ft 422 kts 232°
2026-05-07 17:13 39.24604 -4.16215 30564 ft 423 kts 232°
2026-05-07 17:14 39.22514 -4.18911 30848 ft 424 kts 232°
2026-05-07 17:14 39.20431 -4.21596 31188 ft 423 kts 232°
2026-05-07 17:14 39.18353 -4.24270 31590 ft 420 kts 232°
2026-05-07 17:14 39.16287 -4.26922 31994 ft 418 kts 233°
2026-05-07 17:15 39.14233 -4.29558 32392 ft 416 kts 233°
2026-05-07 17:15 39.12216 -4.32147 32782 ft 414 kts 233°
2026-05-07 17:15 39.10183 -4.34753 33172 ft 412 kts 233°
2026-05-07 17:15 39.08159 -4.37346 33578 ft 409 kts 233°
2026-05-07 17:16 39.06149 -4.39924 33968 ft 407 kts 233°
2026-05-07 17:16 39.04148 -4.42491 34297 ft 405 kts 233°
2026-05-07 17:16 39.02157 -4.45043 34556 ft 404 kts 233°
2026-05-07 17:16 39.00168 -4.47588 34839 ft 403 kts 232°
2026-05-07 17:17 38.98177 -4.50130 35095 ft 403 kts 232°
2026-05-07 17:17 38.96184 -4.52672 35346 ft 402 kts 232°
2026-05-07 17:17 38.94202 -4.55203 35597 ft 402 kts 232°
2026-05-07 17:17 38.92221 -4.57732 35820 ft 402 kts 232°
2026-05-07 17:18 38.90238 -4.60258 36082 ft 401 kts 232°
2026-05-07 17:18 38.88256 -4.62776 36336 ft 400 kts 232°
2026-05-07 17:18 38.86274 -4.65289 36575 ft 400 kts 232°
2026-05-07 17:18 38.84293 -4.67800 36786 ft 400 kts 232°
2026-05-07 17:19 38.80338 -4.72815 36854 ft 399 kts 232°
2026-05-07 17:19 38.76395 -4.77802 36854 ft 398 kts 231°
2026-05-07 17:20 38.72452 -4.82775 36849 ft 398 kts 231°
2026-05-07 17:20 38.68509 -4.87746 36848 ft 397 kts 231°
2026-05-07 17:21 38.64597 -4.92676 36849 ft 397 kts 231°
2026-05-07 17:21 38.60655 -4.97635 36845 ft 397 kts 231°
2026-05-07 17:22 38.56713 -5.02581 36853 ft 397 kts 231°
2026-05-07 17:22 38.52767 -5.07518 36835 ft 396 kts 231°
2026-05-07 17:23 38.48190 -5.11617 36852 ft 412 kts 214°
2026-05-07 17:23 38.43029 -5.14806 36859 ft 412 kts 214°
2026-05-07 17:24 38.37899 -5.17986 36861 ft 411 kts 214°
2026-05-07 17:24 38.32753 -5.21186 36867 ft 411 kts 214°
2026-05-07 17:25 38.27606 -5.24384 36869 ft 411 kts 214°
2026-05-07 17:25 38.22465 -5.27562 36867 ft 411 kts 214°
2026-05-07 17:26 38.18183 -5.30204 36865 ft 411 kts 214°
2026-05-07 17:26 38.13038 -5.33378 36874 ft 411 kts 214°
2026-05-07 17:27 38.07897 -5.36542 36880 ft 410 kts 214°
2026-05-07 17:27 38.02768 -5.39693 36867 ft 409 kts 214°
2026-05-07 17:28 37.97649 -5.42832 36875 ft 408 kts 214°
2026-05-07 17:28 37.92541 -5.45965 36880 ft 407 kts 214°
2026-05-07 17:29 37.87440 -5.49086 36885 ft 407 kts 214°
2026-05-07 17:29 37.82341 -5.52196 36861 ft 407 kts 214°
2026-05-07 17:30 37.77250 -5.55304 36877 ft 406 kts 214°
2026-05-07 17:30 37.72164 -5.58411 36883 ft 406 kts 214°
2026-05-07 17:31 37.67076 -5.61500 36888 ft 406 kts 213°
2026-05-07 17:31 37.61992 -5.64581 36896 ft 405 kts 214°
2026-05-07 17:32 37.56912 -5.67662 36867 ft 405 kts 214°
2026-05-07 17:32 37.51835 -5.70736 36883 ft 405 kts 213°
2026-05-07 17:33 37.46763 -5.73797 36896 ft 404 kts 213°
2026-05-07 17:33 37.41498 -5.76403 36908 ft 415 kts 200°
2026-05-07 17:34 37.35760 -5.77501 36908 ft 420 kts 197°
2026-05-07 17:34 37.29980 -5.78538 36885 ft 420 kts 197°
2026-05-07 17:35 37.24203 -5.79590 36896 ft 419 kts 197°
2026-05-07 17:35 37.18431 -5.80650 36904 ft 419 kts 197°
2026-05-07 17:36 37.12653 -5.81699 36904 ft 419 kts 197°
2026-05-07 17:36 37.06875 -5.82735 36879 ft 419 kts 197°
2026-05-07 17:37 37.01082 -5.83777 36892 ft 420 kts 197°
2026-05-07 17:37 36.95296 -5.84819 36903 ft 420 kts 197°
2026-05-07 17:38 36.89511 -5.85852 36914 ft 420 kts 197°
2026-05-07 17:38 36.83719 -5.86890 36899 ft 420 kts 197°
2026-05-07 17:39 36.77977 -5.87923 36914 ft 420 kts 197°
2026-05-07 17:39 36.72193 -5.88961 36921 ft 420 kts 197°
2026-05-07 17:40 36.66439 -5.89988 36926 ft 420 kts 197°
2026-05-07 17:40 36.60661 -5.91020 36930 ft 420 kts 197°
2026-05-07 17:41 36.54875 -5.92060 36907 ft 419 kts 197°
2026-05-07 17:41 36.49091 -5.93093 36919 ft 420 kts 197°
2026-05-07 17:42 36.43295 -5.94111 36929 ft 420 kts 197°
2026-05-07 17:42 36.37499 -5.95138 36931 ft 420 kts 197°
2026-05-07 17:43 36.31697 -5.96170 36921 ft 420 kts 197°
2026-05-07 17:43 36.25943 -5.97193 36925 ft 421 kts 197°
2026-05-07 17:44 36.19996 -5.97362 36937 ft 433 kts 186°
2026-05-07 17:44 36.13971 -5.97035 36940 ft 433 kts 186°
2026-05-07 17:45 36.07945 -5.96710 36917 ft 433 kts 186°
2026-05-07 17:45 36.01916 -5.96399 36928 ft 434 kts 186°
2026-05-07 17:46 35.95881 -5.96093 36935 ft 434 kts 186°
2026-05-07 17:46 35.89836 -5.95783 36930 ft 434 kts 186°
2026-05-07 17:47 35.83838 -5.95369 36921 ft 440 kts 180°
2026-05-07 17:47 35.77810 -5.93495 36918 ft 449 kts 172°
2026-05-07 17:48 35.71773 -5.91947 36916 ft 435 kts 186°
2026-05-07 17:48 35.65776 -5.91873 36917 ft 431 kts 188°
2026-05-07 17:49 35.59776 -5.91828 36895 ft 431 kts 188°
2026-05-07 17:49 35.53760 -5.91777 36902 ft 432 kts 188°
2026-05-07 17:50 35.47751 -5.91725 36912 ft 432 kts 188°
2026-05-07 17:50 35.41734 -5.91679 36918 ft 432 kts 188°
2026-05-07 17:51 35.35771 -5.91699 36921 ft 431 kts 189°
2026-05-07 17:51 35.29789 -5.91900 36910 ft 430 kts 190°
2026-05-07 17:52 35.23803 -5.92116 36918 ft 430 kts 190°
2026-05-07 17:52 35.17809 -5.92296 36925 ft 431 kts 189°
2026-05-07 17:53 35.11807 -5.92456 36925 ft 431 kts 189°
2026-05-07 17:53 35.05815 -5.92620 36901 ft 431 kts 189°
2026-05-07 17:54 34.99818 -5.92791 36908 ft 431 kts 189°
2026-05-07 17:54 34.93848 -5.93155 36913 ft 423 kts 198°
2026-05-07 17:55 34.91034 -5.94006 36918 ft 412 kts 207°
2026-05-07 17:55 34.88435 -5.95388 36919 ft 404 kts 216°
2026-05-07 17:55 34.84006 -5.99314 36891 ft 395 kts 225°
2026-05-07 17:56 34.79750 -6.03551 36899 ft 396 kts 225°
2026-05-07 17:56 34.75464 -6.07786 36902 ft 397 kts 225°
2026-05-07 17:57 34.71904 -6.11301 36912 ft 396 kts 225°
2026-05-07 17:57 34.66902 -6.16242 36595 ft 396 kts 225°
2026-05-07 17:58 34.64762 -6.18353 36336 ft 396 kts 225°
2026-05-07 17:58 34.62625 -6.20462 36080 ft 397 kts 225°
2026-05-07 17:58 34.60479 -6.22578 35826 ft 397 kts 224°
2026-05-07 17:58 34.58333 -6.24693 35576 ft 398 kts 224°
2026-05-07 17:59 34.56180 -6.26813 35302 ft 400 kts 224°
2026-05-07 17:59 34.54018 -6.28944 35057 ft 401 kts 224°
2026-05-07 17:59 34.51821 -6.31049 34813 ft 405 kts 220°
2026-05-07 17:59 34.49396 -6.32843 34567 ft 412 kts 213°
2026-05-07 18:00 34.46736 -6.34208 34335 ft 419 kts 205°
2026-05-07 18:00 34.43924 -6.35214 34102 ft 422 kts 203°
2026-05-07 18:00 34.41097 -6.36198 33854 ft 423 kts 203°
2026-05-07 18:00 34.38262 -6.37187 33583 ft 424 kts 203°
2026-05-07 18:01 34.35460 -6.38168 33320 ft 423 kts 202°
2026-05-07 18:01 34.32630 -6.39164 33053 ft 421 kts 202°
2026-05-07 18:01 34.29820 -6.40156 32769 ft 419 kts 202°
2026-05-07 18:01 34.27023 -6.41140 32507 ft 418 kts 202°
2026-05-07 18:02 34.21461 -6.43088 32005 ft 414 kts 202°
2026-05-07 18:02 34.18700 -6.44053 31747 ft 412 kts 202°
2026-05-07 18:02 34.15987 -6.44997 31506 ft 410 kts 202°
2026-05-07 18:03 34.13252 -6.45947 31259 ft 408 kts 202°
2026-05-07 18:03 34.10526 -6.46898 31018 ft 406 kts 202°
2026-05-07 18:03 34.07829 -6.47841 30775 ft 402 kts 202°
2026-05-07 18:03 34.05141 -6.48780 30536 ft 400 kts 202°
2026-05-07 18:04 34.02475 -6.49711 30278 ft 398 kts 201°
2026-05-07 18:04 33.99831 -6.50669 30039 ft 394 kts 205°
2026-05-07 18:04 33.97359 -6.52026 29771 ft 387 kts 214°
2026-05-07 18:04 33.95166 -6.53846 29493 ft 380 kts 223°
2026-05-07 18:05 33.93248 -6.56020 29231 ft 376 kts 227°
2026-05-07 18:05 33.91387 -6.58221 28950 ft 375 kts 227°
2026-05-07 18:05 33.89523 -6.60410 28684 ft 373 kts 227°
2026-05-07 18:05 33.87669 -6.62580 28413 ft 371 kts 227°
2026-05-07 18:06 33.85827 -6.64735 27962 ft 366 kts 227°
2026-05-07 18:06 33.84013 -6.66855 27450 ft 362 kts 227°
2026-05-07 18:06 33.82216 -6.68952 26955 ft 357 kts 227°
2026-05-07 18:06 33.80442 -6.71021 26475 ft 353 kts 227°
2026-05-07 18:07 33.78686 -6.73070 25999 ft 350 kts 227°
2026-05-07 18:07 33.76953 -6.75097 25539 ft 346 kts 227°
2026-05-07 18:07 33.75240 -6.77098 25081 ft 341 kts 227°
2026-05-07 18:07 33.73549 -6.79071 24646 ft 337 kts 227°
2026-05-07 18:08 33.71875 -6.81020 24207 ft 333 kts 227°
2026-05-07 18:08 33.70215 -6.82950 23771 ft 331 kts 227°
2026-05-07 18:08 33.68722 -6.84688 23358 ft 328 kts 226°
2026-05-07 18:08 33.67090 -6.86588 22887 ft 325 kts 226°
2026-05-07 18:09 33.65412 -6.88386 22450 ft 323 kts 219°
2026-05-07 18:09 33.63482 -6.89764 21993 ft 325 kts 208°
2026-05-07 18:09 33.61349 -6.90702 21538 ft 326 kts 203°
2026-05-07 18:09 33.59193 -6.91555 21070 ft 326 kts 203°
2026-05-07 18:10 33.57037 -6.92407 20594 ft 326 kts 203°
2026-05-07 18:10 33.54883 -6.93259 20120 ft 326 kts 203°
2026-05-07 18:10 33.52721 -6.94113 19635 ft 326 kts 203°
2026-05-07 18:10 33.50565 -6.94965 19154 ft 327 kts 202°
2026-05-07 18:11 33.48400 -6.95819 18664 ft 328 kts 203°
2026-05-07 18:11 33.46966 -6.96384 18356 ft 328 kts 203°
2026-05-07 18:11 33.44063 -6.97529 17667 ft 328 kts 202°
2026-05-07 18:11 33.41904 -6.98380 17185 ft 326 kts 202°
2026-05-07 18:12 33.39776 -6.99217 16717 ft 325 kts 202°
2026-05-07 18:12 33.37634 -7.00060 16261 ft 324 kts 201°
2026-05-07 18:12 33.35496 -7.00902 15781 ft 323 kts 201°
2026-05-07 18:12 33.33365 -7.01742 15344 ft 322 kts 201°
2026-05-07 18:13 33.31958 -7.02296 15044 ft 321 kts 201°
2026-05-07 18:13 33.29837 -7.03130 14594 ft 320 kts 201°
2026-05-07 18:13 33.27723 -7.03963 14131 ft 320 kts 200°
2026-05-07 18:13 33.25608 -7.04795 13664 ft 319 kts 200°
2026-05-07 18:14 33.23506 -7.05622 13171 ft 317 kts 200°
2026-05-07 18:14 33.21442 -7.06490 12703 ft 313 kts 206°
2026-05-07 18:14 33.19646 -7.07913 12263 ft 309 kts 223°
2026-05-07 18:14 33.18314 -7.09910 11812 ft 308 kts 239°
2026-05-07 18:15 33.17562 -7.12303 11356 ft 311 kts 255°
2026-05-07 18:15 33.17178 -7.14835 10903 ft 310 kts 257°
2026-05-07 18:15 33.16790 -7.17366 10444 ft 309 kts 256°
2026-05-07 18:15 33.16405 -7.19848 10259 ft 298 kts 256°
2026-05-07 18:16 33.16039 -7.22203 10144 ft 279 kts 256°
2026-05-07 18:16 33.15695 -7.24411 10029 ft 262 kts 256°
2026-05-07 18:16 33.15370 -7.26490 9901 ft 248 kts 256°
2026-05-07 18:16 33.15059 -7.28474 9786 ft 239 kts 256°
2026-05-07 18:17 33.14760 -7.30378 9563 ft 234 kts 256°
2026-05-07 18:17 33.14460 -7.32286 9232 ft 234 kts 256°
2026-05-07 18:17 33.14160 -7.34191 8867 ft 234 kts 256°
2026-05-07 18:17 33.13859 -7.36098 8508 ft 234 kts 256°
2026-05-07 18:18 33.13557 -7.38005 8149 ft 234 kts 256°
2026-05-07 18:18 33.13256 -7.39910 7823 ft 233 kts 256°
2026-05-07 18:18 33.12950 -7.41831 7482 ft 232 kts 256°
2026-05-07 18:18 33.12650 -7.43726 7111 ft 234 kts 257°
2026-05-07 18:19 33.12350 -7.45659 6506 ft 246 kts 260°
2026-05-07 18:19 33.12404 -7.47745 5834 ft 259 kts 282°
2026-05-07 18:19 33.13108 -7.49720 5207 ft 259 kts 305°
2026-05-07 18:19 33.14363 -7.51228 4874 ft 257 kts 326°
2026-05-07 18:20 33.15953 -7.52114 4546 ft 246 kts 345°
2026-05-07 18:20 33.17553 -7.52655 4227 ft 232 kts 345°
2026-05-07 18:20 33.19069 -7.53170 3923 ft 220 kts 345°
2026-05-07 18:20 33.20504 -7.53660 3632 ft 207 kts 346°
2026-05-07 18:21 33.21831 -7.54113 3375 ft 190 kts 345°
2026-05-07 18:21 33.23054 -7.54531 3138 ft 178 kts 346°
2026-05-07 18:21 33.24226 -7.54930 2910 ft 173 kts 346°
2026-05-07 18:21 33.25391 -7.55327 2665 ft 174 kts 346°
2026-05-07 18:22 33.26531 -7.55717 2427 ft 164 kts 346°
2026-05-07 18:22 33.27243 -7.55960 2284 ft 157 kts 346°
2026-05-07 18:22 33.28620 -7.56431 2022 ft 148 kts 347°
2026-05-07 18:22 33.29573 -7.56760 1878 ft 138 kts 348°
2026-05-07 18:23 33.30485 -7.57075 1659 ft 132 kts 347°
2026-05-07 18:23 33.31375 -7.57374 1424 ft 132 kts 347°
2026-05-07 18:23 33.32261 -7.57671 1269 ft 135 kts 345°
2026-05-07 18:23 33.33167 -7.57980 1135 ft 134 kts 345°
2026-05-07 18:24 33.34058 -7.58282 913 ft 133 kts 343°
2026-05-07 18:24 33.34935 -7.58586 720 ft 133 kts 344°
2026-05-07 18:24 33.35760 -7.58871 654 ft 106 kts 345°
2026-05-07 18:24 33.36292 -7.59055 654 ft 46 kts 341°
2026-05-07 18:25 33.36527 -7.59078 650 ft 29 kts
2026-05-07 18:25 33.36587 -7.59062 650 ft 5 kts 18°
2026-05-07 18:25 33.36694 -7.59023 652 ft 21 kts 12°
2026-05-07 18:25 33.36778 -7.58938 652 ft 15 kts 67°
2026-05-07 18:26 33.36809 -7.58811 651 ft 18 kts 73°
2026-05-07 18:26 33.36847 -7.58654 651 ft 22 kts 75°
2026-05-07 18:26 33.36890 -7.58474 651 ft 22 kts 74°
2026-05-07 18:26 33.36935 -7.58302 652 ft 23 kts 67°
2026-05-07 18:27 33.37023 -7.58244 650 ft 15 kts 345°
2026-05-07 18:27 33.37128 -7.58272 650 ft 15 kts 15°
2026-05-07 18:27 33.37159 -7.58205 652 ft 10 kts 66°
2026-05-07 18:27 33.37167 -7.58183 650 ft 0 kts 64°